User: anonymous   Login
Location: Unspecified
(0.0000°N, 0.0000°E)
Time: 04:54:51
(UTC+00:00)
Language:

SUSAT - Orbit

View from above orbital plane
View from above orbital plane
View from above satellite
View from above satellite

Ground track
Ground track

The orbit data is extracted from the following two-line orbital elements,

1 42730U 98067MK  18016.50787990  .00016743  00000-0  18475-3 0  9996
2 42730  51.6376  47.2935 0003635  28.1357 331.9834 15.63209877 36568
Epoch (UTC): 16 January 2018 12:11:20
Eccentricity: 0.0003635
inclination: 51.6376°
perigee height: 376 km
apogee height: 381 km
right ascension of ascending node: 47.2935°
argument of perigee: 28.1357°
revolutions per day: 15.63209877
mean anomaly at epoch: 331.9834°
orbit number at epoch: 3656

The dashed part of the orbit path shows where the satellite is in the earth's shadow,  

DLR